Location: Unspecified
(12.6500°N, 0.0000°E)
Time: 13:23:23
(UTC+00:00)

ISS - Visible Passes

Search period start: 17 October 2019 00:00
Search period end: 27 October 2019 00:00
Orbit: 411 x 421 km, 51.6° (Epoch: 17 October)

Date Brightness Start Highest point End Pass type
(mag) Time Alt. Az. Time Alt. Az. Time Alt. Az.
20 Oct -0.7 04:42:00 10° SSE 04:44:16 17° SE 04:46:30 10° E visible
22 Oct -3.8 04:41:55 26° SW 04:43:41 85° SE 04:47:03 10° NE visible
23 Oct -1.0 03:57:09 18° ENE 03:57:09 18° ENE 03:58:14 10° ENE visible
24 Oct -1.5 04:45:00 14° NNW 04:45:00 14° NNW 04:45:44 10° N visible
